Le nostre stazioni meteo in Italia

Pubblicità
Il mio iltempo24.it
Palermo/Punta Raisi, Italia (16405): Temperatura & dewpoint: 08.11.2019 10:00:00 - 14.11.2019 10:00:00 (CET)Palermo/Punta Raisi, Italia (16405): velocità del vento: 08.11.2019 10:00:00 - 14.11.2019 10:00:00 (CET)Palermo/Punta Raisi, Italia (16405): direzione del vento: 08.11.2019 10:00:00 - 14.11.2019 10:00:00 (CET)Palermo/Punta Raisi, Italia (16405): reduced air pressure: 08.11.2019 10:00:00 - 14.11.2019 10:00:00 (CET)Palermo/Punta Raisi, Italia (16405): visibility: 08.11.2019 10:00:00 - 14.11.2019 10:00:00 (CET)Palermo/Punta Raisi, Italia (16405): precipitazioni: 08.11.2019 10:00:00 - 14.11.2019 10:00:00 (CET)
Data & Tempo tt [°C] td [°C] ff [km/h] ff [kn] dd ppp [hPa] vv [km] rr [mm]
14.11.2019 10:00:00 17,7 9,7 15 8 SSO 1007,7 10 0,0
14.11.2019 09:00:00 17,0 9,0 18 10 S - 10 -
14.11.2019 08:00:00 17,0 9,0 18 10 S - 10 -
14.11.2019 07:00:00 16,8 9,1 22 12 S 1006,3 10 -
14.11.2019 06:00:00 17,0 8,0 21 11 S - 10 -
14.11.2019 05:00:00 17,0 9,0 28 15 S - 10 -
14.11.2019 04:00:00 16,9 8,9 26 14 S 1006,7 10 0,0
14.11.2019 03:00:00 17,0 10,0 28 15 S - 10 -
14.11.2019 02:00:00 17,0 10,0 31 17 S - 10 -
14.11.2019 01:00:00 17,2 10,1 26 14 S 1007,5 10 -
14.11.2019 00:00:00 17,0 10,0 34 18 SSO - 10 -
13.11.2019 23:00:00 17,0 9,0 28 15 S - 10 -
13.11.2019 22:00:00 16,3 10,3 26 14 S 1009,1 10 0,0
13.11.2019 21:00:00 16,0 11,0 15 8 S - 10 -
13.11.2019 20:00:00 16,0 11,0 21 11 S - 10 -
13.11.2019 19:00:00 16,5 9,6 15 8 SSO 1009,1 10 -
13.11.2019 18:00:00 18,0 11,0 24 13 OSO - 10 -
13.11.2019 17:00:00 18,0 11,0 22 12 O - 10 -
13.11.2019 16:00:00 18,0 10,0 26 14 O - 10 -
13.11.2019 15:00:00 18,0 9,0 28 15 O - 10 -
13.11.2019 14:00:00 18,0 10,0 35 19 O - 10 -
13.11.2019 13:00:00 18,1 10,5 35 19 O 1007,1 10 -
13.11.2019 12:00:00 18,0 11,0 39 21 O - 10 -
13.11.2019 11:00:00 18,0 10,0 41 22 O - 10 -
13.11.2019 10:00:00 17,6 9,8 41 22 O 1005,7 10 0,0
13.11.2019 09:00:00 18,0 11,0 37 20 O - 10 -
13.11.2019 08:00:00 18,0 10,0 42 23 O - 9 -
13.11.2019 07:00:00 17,4 11,2 44 24 O 1002,3 10 -
13.11.2019 06:00:00 17,0 12,0 48 26 O - 10 -
13.11.2019 05:00:00 18,0 12,0 52 28 O - 10 -
13.11.2019 04:00:00 16,8 13,8 55 30 O 999,1 8 0,0
13.11.2019 03:00:00 18,0 13,0 57 31 O - 10 -
13.11.2019 02:00:00 18,0 14,0 57 31 O - 8 -
13.11.2019 01:00:00 16,1 14,5 48 26 O 995,9 8 -
13.11.2019 00:00:00 17,0 13,0 46 25 O - 10 -
12.11.2019 23:00:00 17,0 13,0 63 34 O - 10 -
12.11.2019 22:00:00 16,4 13,8 34 18 S 990,8 8 0,0
12.11.2019 21:00:00 15,0 12,0 24 13 S - 10 -
12.11.2019 20:00:00 13,0 12,0 9 5 ESE - 8 -
12.11.2019 19:00:00 14,5 12,3 5 3 NNE 990,0 8 -
12.11.2019 18:00:00 15,0 10,0 16 9 S - 10 -
12.11.2019 17:00:00 14,0 10,0 34 18 S - 10 -
12.11.2019 16:00:00 15,8 9,0 26 14 S 988,8 10 0,0
12.11.2019 15:00:00 16,0 9,0 31 17 S - 10 -
12.11.2019 14:00:00 17,0 7,0 18 10 S - 10 -
12.11.2019 13:00:00 16,6 6,1 26 14 S 990,0 10 -
12.11.2019 12:00:00 16,0 7,0 34 18 S - 10 -
12.11.2019 11:00:00 16,0 5,0 31 17 S - 10 -
12.11.2019 10:00:00 15,4 8,2 31 17 S 992,3 10 0,0
12.11.2019 09:00:00 16,0 10,0 24 13 SSO - 10 -
12.11.2019 08:00:00 15,0 13,0 9 5 SSO - 10 -
12.11.2019 07:00:00 15,5 13,1 15 8 NO 992,5 10 -
12.11.2019 06:00:00 14,0 13,0 8 4 SE - 10 -
12.11.2019 05:00:00 14,0 13,0 8 4 S - 10 -
12.11.2019 04:00:00 14,1 12,5 9 5 SO 995,0 10 0,0
12.11.2019 03:00:00 15,0 13,0 8 4 ESE - 10 -
12.11.2019 02:00:00 14,0 11,0 8 4 E - 10 -
12.11.2019 01:00:00 14,0 11,2 5 3 SE 998,7 10 -
12.11.2019 00:00:00 16,0 11,0 4 2 - - 10 -
11.11.2019 23:00:00 15,0 12,0 9 5 SSE - 10 -
11.11.2019 22:00:00 16,1 11,9 16 9 E 1001,1 10 0,0
11.11.2019 21:00:00 17,0 11,0 18 10 E - 10 -
11.11.2019 20:00:00 17,0 11,0 35 19 E - 10 -
11.11.2019 19:00:00 16,3 10,8 42 23 E 1002,0 10 -
11.11.2019 18:00:00 16,0 11,0 52 28 E - 10 -
11.11.2019 17:00:00 15,0 11,0 39 21 ENE - 10 -
11.11.2019 16:00:00 13,6 10,9 15 8 S 1003,9 10 0,0
11.11.2019 15:00:00 14,0 12,0 21 11 SSO - 8 -
11.11.2019 14:00:00 14,0 11,0 22 12 S - 8 -
11.11.2019 13:00:00 15,8 12,3 24 13 SO 1008,3 10 -
11.11.2019 12:00:00 19,0 10,0 5 3 - - 10 -
11.11.2019 11:00:00 17,0 10,0 8 4 SSE - 10 -
11.11.2019 10:00:00 18,4 9,1 4 2 - 1009,2 10 0,0
11.11.2019 09:00:00 17,0 10,0 8 4 E - 10 -
11.11.2019 08:00:00 16,0 11,0 5 3 ESE - 10 -
11.11.2019 07:00:00 18,0 7,8 11 6 E 1009,6 10 -
11.11.2019 06:00:00 16,0 8,0 11 6 SE - 10 -
11.11.2019 05:00:00 16,0 8,0 11 6 SE - 10 -
11.11.2019 04:00:00 16,8 7,8 13 7 S 1009,8 10 0,0
11.11.2019 03:00:00 16,0 8,0 13 7 SSE - 10 -
11.11.2019 02:00:00 16,0 8,0 16 9 S - 10 -
11.11.2019 01:00:00 16,9 8,1 29 16 S 1010,9 10 -
11.11.2019 00:00:00 18,0 7,0 39 21 S - 10 -
10.11.2019 23:00:00 18,0 6,0 34 18 S - 10 -
10.11.2019 22:00:00 18,0 5,7 31 17 S 1010,2 10 0,0
10.11.2019 21:00:00 17,0 7,0 26 14 S - 10 -
10.11.2019 20:00:00 17,0 7,0 24 13 S - 10 -
10.11.2019 19:00:00 17,2 6,8 22 12 S 1010,2 10 -
10.11.2019 18:00:00 17,0 8,0 21 11 S - 10 -
10.11.2019 17:00:00 18,0 8,0 16 9 S - 10 -
10.11.2019 16:00:00 18,2 8,9 16 9 S 1009,7 10 0,0
10.11.2019 15:00:00 18,0 9,0 21 11 S - 10 -
10.11.2019 14:00:00 18,0 9,0 28 15 SSO - 10 -
10.11.2019 13:00:00 17,9 9,8 29 16 SSO 1010,5 10 -
10.11.2019 12:00:00 17,0 10,0 22 12 SSO - 10 -
10.11.2019 11:00:00 16,0 10,0 26 14 S - 10 -
10.11.2019 10:00:00 17,3 8,2 22 12 S 1012,3 10 0,0
10.11.2019 09:00:00 16,0 7,0 22 12 SSO - 10 -
10.11.2019 08:00:00 15,0 8,0 24 13 S - 10 -
10.11.2019 07:00:00 14,2 7,7 22 12 S 1011,4 10 -
10.11.2019 06:00:00 15,0 10,0 22 12 SO - 10 -
10.11.2019 05:00:00 17,0 10,0 42 23 O - 10 -
10.11.2019 04:00:00 17,1 10,2 39 21 O 1011,5 10 0,0
10.11.2019 03:00:00 18,0 11,0 44 24 O - 10 -
10.11.2019 02:00:00 17,0 9,0 42 23 O - 10 -
10.11.2019 01:00:00 14,4 9,3 21 11 S 1011,0 10 -
10.11.2019 00:00:00 14,0 10,0 28 15 SSO - 10 -
09.11.2019 23:00:00 16,0 10,0 42 23 O - 8 -
09.11.2019 22:00:00 15,8 10,3 50 27 O 1011,3 9 0,0
09.11.2019 21:00:00 15,0 8,0 29 16 SSO - 10 -
09.11.2019 20:00:00 14,0 8,0 31 17 SSO - 10 -
09.11.2019 19:00:00 14,5 8,4 39 21 SO 1011,2 10 -
09.11.2019 18:00:00 14,0 9,0 34 18 S - 10 -
09.11.2019 17:00:00 14,0 9,0 24 13 SSO - 10 -
09.11.2019 16:00:00 16,3 10,5 31 17 SO 1011,0 10 0,0
09.11.2019 15:00:00 17,0 10,0 35 19 SO - 10 -
09.11.2019 14:00:00 16,0 10,0 41 22 SO - 10 -
09.11.2019 13:00:00 17,0 10,7 29 16 SSO 1011,5 10 -
09.11.2019 12:00:00 16,0 10,0 22 12 S - 10 -
09.11.2019 11:00:00 16,0 10,0 29 16 S - 10 -
09.11.2019 10:00:00 16,8 9,9 24 13 S 1012,7 10 0,0
09.11.2019 09:00:00 16,0 10,0 16 9 SSO - 10 -
09.11.2019 08:00:00 15,0 9,0 13 7 S - 10 -
09.11.2019 07:00:00 14,3 10,2 11 6 S 1012,4 10 -
09.11.2019 06:00:00 14,0 11,0 11 6 S - 10 -
09.11.2019 05:00:00 14,0 12,0 11 6 S - 10 -
09.11.2019 04:00:00 14,0 12,2 11 6 S 1012,6 10 0,0
09.11.2019 03:00:00 14,0 13,0 11 6 S - 10 -
09.11.2019 02:00:00 15,0 13,0 11 6 S - 10 -
09.11.2019 01:00:00 16,6 12,3 15 8 SSE 1012,5 10 -
09.11.2019 00:00:00 16,0 13,0 24 13 SO - 7 -
08.11.2019 23:00:00 17,0 11,0 15 8 SO - 10 -
08.11.2019 22:00:00 17,2 11,7 16 9 SSO 1011,9 10 0,0
08.11.2019 21:00:00 18,0 11,0 26 14 SSO - 10 -
08.11.2019 20:00:00 18,0 10,0 22 12 S - 10 -
08.11.2019 19:00:00 18,2 10,1 28 15 S 1010,6 10 -
08.11.2019 18:00:00 18,0 10,0 24 13 S - 10 -
08.11.2019 17:00:00 19,0 9,0 21 11 S - 10 -
08.11.2019 16:00:00 19,6 9,7 34 18 SSO 1009,4 10 0,0
08.11.2019 15:00:00 20,0 10,0 39 21 SSO - 10 -
08.11.2019 14:00:00 21,0 11,0 37 20 SSO - 10 -
08.11.2019 13:00:00 21,0 11,3 35 19 SSO 1009,1 10 -
08.11.2019 12:00:00 21,0 11,0 39 21 SSO - 10 -
08.11.2019 11:00:00 21,0 10,0 34 18 SSO - 10 -
08.11.2019 10:00:00 20,2 10,7 26 14 SSO 1010,0 10 0,0

tt = Temperatura
td = dewpoint
ff = velocità del vento
dd = direzione del vento
ppp = reduced air pressure
vv = visibility
rr = precipitazioni

Stazioni seguenti

WeatherPro
AMSI
MeteoEarth